UFO 10 (USA 146) (25967 NORAD) Tracking and Keplerian Element Data

This shows tracking and keplerian element data for the satellite.

Feedback or suggestion? Click here.




ElementValue
Catalog25967
NameUFO 10 (USA 146)
Epoch Orbit9234
Epoch Day34.75055873
Epoch Year2025
RAAN29.6676
Inclination9.6035
Eccentricity0.0006237
Argument of Perigee262.2222
Mean Anonmoly89.6176
Mean Motion1.00267977
Decay Rate-1.86E-06
L11 25967U 99063A 25034.75055873 -.00000186 00000+0 00000+0 0 9994
L22 25967 9.6035 29.6676 0006237 262.2222 89.6176 1.00267977 92340



Live tracking and technical data element details for UFO 10 (USA 146) (NORAD 25967). UFO 10 (USA 146) can be tracked NOW for your location showing map with azimuth and elevation plus other details from your city location.







IsCatalogInMostPopularTable: catalog: 25967, numindb: 381
Update: records affected: 1



GetName: 25967 UFO 10 (USA 146)

Hit Count: updated at: Thu, 15 May 2025 19:43:59 GMT